Showing default

GCOM W1, 38337

Orbit data source: Space-Track

GCOM W1, 38337 is a payload satellite owned by JAXA (JP) in SSO that was launched on Thu, 17 May 2012 UTC via an H-IIA 202 launch vehicle from the Tanegashima Space Center (TNSTA). Payload-class satellites include a variety of spacecraft equipped with specific instruments for various scientific and technological missions. These include communications satellites like Starlink; space stations such as the ISS; scientific satellites like the Hubble; Earth observation satellites from companies like Planet Labs, Umbra, and HawkEye 360; GPS; miniature CubeSats for education and research; and military/defense satellites.

Loading next visibility...
Identifier
38337, 2012-025A
Orbit
SSO
Country
Flag of JPJP / JPN
Related business
Manufacturer
NECTF?
Mission
Operational Civil Science
Bus & Motor
GCOM, AOCS
Mass
1,991 kg wet, 1,841 kg dry
Launch date (UTC)
2012-05-17 (13 years ago)
Launch vehicle
H-IIA 202
Launch site
Tanegashima Space Center (TNSTA)
Object type
Payload
Rocket body
Debris
Shape & HBR
Box + 2 Pan + 1 Dish, 8.8 m
Radar Cross Section
35.969 m², Large (>1 m²)

Expand to show TLE details & history
Last TLE update: 15 hours ago

TLE from 15 hours ago
0 GCOM W1
1 38337U 12025A   25260.82507194  .00000541  00000-0  13013-3 0  9996
2 38337  98.2067 200.2174 0001572  79.0846 335.1734 14.57131504709376
Epoch: 2025-09-17T19:48Z
TLE epoch observation values (Epoch: 2025-09-17T19:48:06.215Z)
Latitude
53.54545°
Longitude
-105.00077°
Altitude
710.214 km
Speed
7.506 km/s
True Right ascension
12h 36m 04s
True Declination
53° 22' 47"
Sunlit
Object was in daylight at epoch
Visualization orbit readout
Latitude
Unknown
Longitude
Unknown
Altitude
Unknown
Speed
Unknown
Apparent Right ascension
Unknown
Apparent Declination
Unknown
Sunlit
N/A
Visualization observer readout
Local Sidereal Time
03:24:30
Azimuth
Unknown
Elevation
Unknown
Doppler factor
Unknown
Orbital elements
Apogee altitude
700.649 km
Perigee altitude
698.424 km
Semi-major axis
7,077.674 km
Eccentricity
0.00016
Inclination
98.2067°
RAAN
200.2174°
Arg. of periapsis
79.0846°
True anomaly
335.16584°
Mean anomaly
335.1734°
Eccentric anomaly
335.16962°
Mean motion
3.64508 °/min
Orbital period
98.76 mins
BSTAR
0.00013013
Loading maneuver chart data...
Computing Atmospheric mass density...
Loading historical data...
Loading historical data...
Loading historical data...
Loading historical data...
Loading historical data...
Loading historical data...
Loading historical data...

Documentation

Showing up to 5 results
|